Regional Weather Roundup
Issued by NWS Sterling, VA

Home | Current Version | Previous Version | Graphics & Text | Print | Product List | Glossary On
Versions: 1 2 3 4 5 6 7 8 9 10 11 12 13 14 15 16 17 18 19 20 21 22 23 24 25 26 27
000
ASUS41 KLWX 290710
RWRLWX

REGIONAL WEATHER ROUNDUP
NATIONAL WEATHER SERVICE BALTIMORE MD/WASHINGTON DC
300 AM EDT THU SEP 29 2016

Note: "FAIR" indicates few or no clouds below 12,000 feet
with no significant weather and/or obstructions to visibility.
 TC=TEMPERATURE CELSIUS

 * =Non NWS site. Station does not report precipitation (e.g. rain,
    snow, etc.), thunder, or fog.

DCZ001-MDZ009-015-VAZ040>042-051-053>054-290800-
WASHINGTON METRO

CITY           SKY/WX    TMP DP  RH WIND       PRES   REMARKS
WASHINGTON NAT LGT RAIN  69  67  93 E12       30.06R
DULLES         LGT RAIN  67  65  93 E12       30.02S
ANDREWS AFB    RAIN      66  64  94 E10       30.05S
FT BELVOIR     RAIN      68  66  93 VRB3      30.04F FOG
QUANTICO       RAIN      70  67  90 SE13G23   30.02F FOG
COLLEGE PARK*  CLOUDY    64  64 100 E6        30.06R
LEESBURG*      CLOUDY    68  68 100 SE12      30.04R
MANASSAS*      CLOUDY    70  70 100 E10       30.03S
GAITHERSBURG*  CLOUDY    66  63  88 E8G17     30.08F

$$

MDZ006>007-011-014-290800-
BALTIMORE METRO

CITY           SKY/WX    TMP DP  RH WIND       PRES   REMARKS
BWI AIRPORT    LGT RAIN  66  64  93 E18G26    30.08R FOG
MD SCIENCE CTR   N/A     66  63  90 MISG      30.08S
ANNAPOLIS      RAIN      69  67  93 E21G31    30.07R FOG
FORT MEADE*    CLOUDY    64  63  94 E10       30.10R

$$

MDZ012-015-019>023-290800-
MARYLAND EASTERN SHORE

CITY           SKY/WX    TMP DP  RH WIND       PRES   REMARKS
OCEAN CITY     TSTM      72  68  87 E21G36    30.07R
SALISBURY      RAIN      66  66 100 E9        30.06F FOG
BAY BRIDGE AP* RAIN      66  66 100 MISG      30.07R FOG
CAMBRIDGE*     CLOUDY    64  64 100 NE8       30.06S

$$

MDZ017>025-290800-
SOUTHERN MARYLAND

CITY           SKY/WX    TMP DP  RH WIND       PRES   REMARKS
PATUXENT RIVER LGT RAIN  68  66  93 E16G22    30.05R
ST INIGOES     LGT RAIN  69  67  93 E8        30.04F
LEONARDTOWN*   CLOUDY    68  64  88 E8        30.07S

$$

MDZ003>005-290800-
NORTH CENTRAL MARYLAND

CITY           SKY/WX    TMP DP  RH WIND       PRES   REMARKS
FREDERICK*     NOT AVBL
HAGERSTOWN APT HVY RAIN  62  59  90 NE15G22   30.06R FOG

$$

MDZ501>502-290800-
WESTERN MARYLAND

CITY           SKY/WX    TMP DP  RH WIND       PRES   REMARKS
OAKLAND*       CLOUDY    54  54 100 E10G17    30.05S
CUMBERLAND*    CLOUDY    63  63 100 CALM      30.08F

$$

VAZ025>031-290800-
SHENANDOAH VALLEY

CITY           SKY/WX    TMP DP  RH WIND       PRES   REMARKS
WINCHESTER*    RAIN      63  63 100 CALM      30.04F
FRONT ROYAL*   CLOUDY    61  61 100 E5        30.02S
LURAY*         LGT RAIN N/A N/A N/A CALM      30.01F
NEW MARKET*    CLOUDY   N/A N/A N/A N3        30.00F
STAUNTON*      HVY RAIN  61  60  97 NW3       30.02F
WAYNESBORO*    CLOUDY    62  61  96 CALM      30.01S

$$

WVZ021-048>050-054>055-290800-
EASTERN WEST VIRGINIA PANHANDLE

CITY           SKY/WX    TMP DP  RH WIND       PRES   REMARKS
MARTINSBURG    RAIN      62  61  96 N12       30.05S FOG
PETERSBURG*    LGT RAIN  64  63  96 N5        30.00F

$$

VAZ036>039-050-290800-
CENTRAL FOOTHILLS

CITY           SKY/WX    TMP DP  RH WIND       PRES   REMARKS
CHARLOTTESVILL CLOUDY    66  64  93 NE7       30.00S
CULPEPER*      CLOUDY    68  68  99 CALM      30.02F
ORANGE*          N/A     66  66 100 CALM      30.03S
GORDONSVILLE*  CLOUDY    66  66 100 NE5       30.00S
WARRENTON*     LGT RAIN  69  64  84 SE5       30.02R

$$

VAZ055>057-290800-
NORTH AND CENTRAL PIEDMONT

CITY           SKY/WX    TMP DP  RH WIND       PRES   REMARKS
FREDERICKSBRG* HVY RAIN  67  67 100 CALM      30.00F VSB 3/4
STAFFORD*      HVY RAIN  67  67 100 E5        30.05F

$$

NCZ024-NYZ072-PAZ021-071-VAZ022-071-290800-
OTHER REGIONAL OBSERVATIONS

CITY           SKY/WX    TMP DP  RH WIND       PRES   REMARKS
NEW YORK CITY  CLOUDY    59  55  87 E8G17     30.27F
PHILADELPHIA   LGT RAIN  60  58  92 NE13G21   30.19F
PITTSBURGH     CLOUDY    61  61 100 W3        30.00S
ROANOKE        LGT RAIN  64  63  96 CALM      29.99F
RICHMOND       LGT RAIN  67  66  97 SE13      30.00S FOG
RALEIGH        TSTM      66  65  96 SE9       29.98F

$$

ANZ530>537-290800-
MARINE OBSERVATIONS

STATION/POSITION TIME  TEMP    WIND        PRES
                       AIR SEA DIR/SP/G
                 (UTC) (F)     (DEG/KT/KT) (MB)
THOMAS PT LIGHT  0600   69 73  100/ 26/ 29 1017.9R
BALT KEY BRIDGE  0648           70/ 20/ 24 1018.1R
COVE POINT       0648          100/ 24/ 27 1018.0R
LEWISETTA        0648           80/ 14/ 18 1016.8F
SOLOMONS ISLAND  0642           60/ 16/ 22   N/A
PINEY POINT      0648           80/ 12/ 15   N/A

$$





USA.gov is the U.S. government's official web portal to all federal, state and local government web resources and services.